GW2624 Weather Reports


Display with metric or nautical units.
time (UTC)temp
F
wind
direction
speed
MPH
gust
MPH
rain 1hr
in
rain 24hr
in
rain mn
in
humidity
%
barometer
mb
20260904002404 81 197 2.0 9.0 0.00 0.00 0.00 31 1004.7
20260904000405 83 202 3.0 8.0 0.00 0.00 0.00 31 1004.7
20260903234405 84 164 3.0 8.0 0.00 0.00 0.00 30 1004.6
20260903233905 84 162 2.0 10.0 0.00 0.00 0.00 30 1004.6
20260903232405 84 231 1.0 10.0 0.00 0.00 0.00 29 1004.6
20260903231904 84 225 3.0 10.0 0.00 0.00 0.00 29 1004.7
20260903225405 85 184 3.0 9.0 0.00 0.00 0.00 29 1004.7
20260903224405 85 202 3.0 9.0 0.00 0.00 0.00 29 1004.9
20260903223905 85 196 4.0 9.0 0.00 0.00 0.00 28 1004.9
20260903221404 86 258 5.0 9.0 0.00 0.00 0.00 28 1005.0
20260903220405 85 237 3.0 6.0 0.00 0.00 0.00 28 1005.1
20260903214404 84 242 2.0 8.0 0.00 0.00 0.00 29 1005.3
20260903213905 84 227 2.0 6.0 0.00 0.00 0.00 28 1005.5
20260903212904 85 226 1.0 6.0 0.00 0.00 0.00 29 1005.6
20260903211904 85 205 3.0 12.0 0.00 0.00 0.00 27 1005.6
20260903205905 85 181 3.0 9.0 0.00 0.00 0.00 27 1006.0
20260903205405 86 204 5.0 9.0 0.00 0.00 0.00 28 1006.0
20260903204905 85 45 2.0 9.0 0.00 0.00 0.00 29 1006.0
20260903203404 84 144 4.0 12.0 0.00 0.00 0.00 30 1006.1
20260903202405 84 161 4.0 12.0 0.00 0.00 0.00 30 1006.2
20260903195404 84 263 4.0 7.0 0.00 0.00 0.00 29 1006.8
20260903193404 84 34 1.0 7.0 0.00 0.00 0.00 32 1007.1
20260903191904 83 246 2.0 6.0 0.00 0.00 0.00 30 1007.4
20260903190905 83 280 2.0 6.0 0.00 0.00 0.00 32 1007.7
20260903190405 83 11 1.0 8.0 0.00 0.00 0.00 32 1007.8
20260903185904 84 181 3.0 8.0 0.00 0.00 0.00 29 1008.0
20260903184904 84 211 1.0 6.0 0.00 0.00 0.00 33 1008.3
20260903183905 83 208 2.0 6.0 0.00 0.00 0.00 32 1008.3
20260903183405 83 243 1.0 6.0 0.00 0.00 0.00 31 1008.4
20260903182905 82 74 0.0 5.0 0.00 0.00 0.00 33 1008.5
20260903181905 81 253 2.0 3.0 0.00 0.00 0.00 33 1008.6
20260903180905 82 90 1.0 3.0 0.00 0.00 0.00 34 1008.8
20260903175905 82 241 2.0 5.0 0.00 0.00 0.00 31 1008.8
20260903174405 81 300 1.0 3.0 0.00 0.00 0.00 34 1009.0
20260903173404 80 98 2.0 3.0 0.00 0.00 0.00 33 1009.0
20260903172904 80 246 2.0 3.0 0.00 0.00 0.00 35 1009.1
20260903170904 78 50 1.0 3.0 0.00 0.00 0.00 38 1009.0
20260903164904 77 319 1.0 6.0 0.00 0.00 0.00 42 1009.1
20260903163404 76 292 2.0 7.0 0.00 0.00 0.00 45 1009.0
20260903161904 76 146 2.0 6.0 0.00 0.00 0.00 45 1009.0
20260903160905 75 282 1.0 6.0 0.00 0.00 0.00 46 1009.0
20260903160404 74 220 2.0 3.0 0.00 0.00 0.00 46 1008.9
20260903155905 74 311 1.0 3.0 0.00 0.00 0.00 46 1008.9
20260903152905 70 228 1.0 3.0 0.00 0.00 0.00 53 1009.2
20260903151905 68 272 1.0 3.0 0.00 0.00 0.00 54 1009.3
20260903150404 66 247 1.0 3.0 0.00 0.00 0.00 54 1009.3
20260903145905 66 227 0.0 2.0 0.00 0.00 0.00 56 1009.4
20260903143904 63 207 0.0 2.0 0.00 0.00 0.00 61 1009.4
20260903142904 61 141 0.0 0.0 0.00 0.00 0.00 66 1009.4
20260903141404 58 141 0.0 0.0 0.00 0.00 0.00 73 1009.3
20260903140904 57 141 0.0 0.0 0.00 0.00 0.00 76 1009.3
20260903135905 55 141 0.0 0.0 0.00 0.00 0.00 79 1009.4
20260903135405 54 141 0.0 0.0 0.00 0.00 0.00 80 1009.4
20260903134904 54 141 0.0 0.0 0.00 0.00 0.00 81 1009.3
20260903133905 53 18 0.0 1.0 0.00 0.00 0.00 81 1009.4
20260903131905 52 141 0.0 0.0 0.00 0.00 0.00 80 1009.3
20260903131405 52 141 0.0 0.0 0.00 0.00 0.00 80 1009.2
20260903130404 52 141 0.0 0.0 0.00 0.00 0.00 79 1009.0
20260903125404 52 141 0.0 0.0 0.00 0.00 0.00 79 1008.9
20260903124904 52 141 0.0 1.0 0.00 0.00 0.00 79 1008.9
20260903124404 52 141 0.0 1.0 0.00 0.00 0.00 78 1008.8
20260903123404 52 141 0.0 0.0 0.00 0.00 0.00 78 1008.7
20260903121905 52 141 0.0 0.0 0.00 0.00 0.00 77 1008.6
20260903121405 52 141 0.0 0.0 0.00 0.00 0.00 77 1008.6
20260903120904 52 141 0.0 0.0 0.00 0.00 0.00 77 1008.5
20260903112905 53 141 0.0 2.0 0.00 0.00 0.00 73 1008.6
20260903111405 54 141 0.0 1.0 0.00 0.00 0.00 72 1008.4
20260903110905 54 0 0.0 1.0 0.00 0.00 0.00 72 1008.4
20260903110404 54 0 0.0 1.0 0.00 0.00 0.00 71 1008.4
20260903105905 54 0 0.0 0.0 0.00 0.00 0.00 70 1008.3
20260903104404 55 0 0.0 2.0 0.00 0.00 0.00 69 1008.3
20260903103404 55 0 0.0 2.0 0.00 0.00 0.00 67 1008.3
20260903102904 55 0 0.0 1.0 0.00 0.00 0.00 67 1008.2
20260903101905 56 0 1.0 2.0 0.00 0.00 0.00 64 1008.1
20260903100904 56 0 0.0 2.0 0.00 0.00 0.00 62 1008.0
20260903100405 56 0 1.0 3.0 0.00 0.00 0.00 61 1007.9
20260903095404 56 0 1.0 3.0 0.00 0.00 0.00 62 1007.8
20260903094904 56 0 1.0 3.0 0.00 0.00 0.00 62 1007.7
20260903094405 56 0 2.0 3.0 0.00 0.00 0.00 61 1007.8
20260903093905 56 0 1.0 3.0 0.00 0.00 0.00 62 1007.8
20260903093404 56 0 0.0 3.0 0.00 0.00 0.00 62 1007.8
20260903091405 56 0 0.0 1.0 0.00 0.00 0.00 62 1007.8
20260903090905 56 0 0.0 3.0 0.00 0.00 0.00 63 1007.9
20260903085904 57 0 1.0 3.0 0.00 0.00 0.00 63 1007.8
20260903084405 58 0 0.0 1.0 0.00 0.00 0.00 61 1007.8
20260903083905 58 0 0.0 1.0 0.00 0.00 0.00 61 1007.9
20260903082404 59 0 1.0 2.0 0.00 0.00 0.00 54 1007.8
20260903081905 59 0 1.0 1.0 0.00 0.00 0.00 54 1007.8
20260903080904 59 0 0.0 1.0 0.00 0.00 0.00 54 1007.9
20260903080405 59 0 0.0 2.0 0.00 0.00 0.00 55 1007.8
20260903074904 59 0 1.0 3.0 0.00 0.00 0.00 57 1007.7
20260903073905 59 0 0.0 3.0 0.00 0.00 0.00 56 1007.7
20260903072904 60 0 0.0 3.0 0.00 0.00 0.00 57 1007.8
20260903071905 60 0 0.0 2.0 0.00 0.00 0.00 54 1007.8
20260903071404 61 0 0.0 3.0 0.00 0.00 0.00 54 1007.8
20260903070405 61 0 0.0 3.0 0.00 0.00 0.00 53 1007.9
20260903065405 61 0 1.0 3.0 0.00 0.00 0.00 50 1007.8
20260903064404 61 0 2.0 3.0 0.00 0.00 0.00 54 1007.7
20260903063904 61 0 1.0 3.0 0.00 0.00 0.00 54 1007.7
20260903063404 61 0 0.0 2.0 0.00 0.00 0.00 52 1007.7
20260903062404 62 138 0.0 3.0 0.00 0.00 0.00 52 1007.8
20260903061405 62 138 2.0 5.0 0.00 0.00 0.00 52 1007.6
20260903060904 62 140 2.0 3.0 0.00 0.00 0.00 53 1007.6
20260903060405 62 155 2.0 3.0 0.00 0.00 0.00 53 1007.5
20260903055905 62 155 0.0 3.0 0.00 0.00 0.00 53 1007.5
20260903055404 62 155 0.0 3.0 0.00 0.00 0.00 54 1007.4
20260903054904 62 157 2.0 3.0 0.00 0.00 0.00 53 1007.4
20260903054404 62 130 2.0 3.0 0.00 0.00 0.00 55 1007.5
20260903053906 62 132 0.0 3.0 0.00 0.00 0.00 57 1007.4
20260903052904 63 138 0.0 1.0 0.00 0.00 0.00 55 1007.3
20260903051404 63 138 0.0 0.0 0.00 0.00 0.00 52 1007.4
20260903050905 63 138 0.0 0.0 0.00 0.00 0.00 53 1007.4
20260903045904 64 138 0.0 0.0 0.00 0.00 0.00 54 1007.4
20260903045405 64 138 0.0 0.0 0.00 0.00 0.00 53 1007.5
20260903044404 65 138 0.0 2.0 0.00 0.00 0.00 51 1007.4
20260903043405 66 138 0.0 1.0 0.00 0.00 0.00 50 1007.5
20260903042904 66 138 0.0 3.0 0.00 0.00 0.00 50 1007.5
20260903042405 66 138 1.0 3.0 0.00 0.00 0.00 49 1007.5
20260903040404 66 140 1.0 3.0 0.00 0.00 0.00 49 1007.6
20260903034905 66 148 0.0 3.0 0.00 0.00 0.00 49 1007.3
20260903033905 66 144 2.0 3.0 0.00 0.00 0.00 49 1007.2
20260903031904 67 145 1.0 3.0 0.00 0.00 0.00 49 1007.0
20260903024404 67 175 0.0 1.0 0.00 0.00 0.00 52 1006.5
20260903023405 68 175 0.0 2.0 0.00 0.00 0.00 49 1006.4
20260903022904 69 175 0.0 2.0 0.00 0.00 0.00 48 1006.5
20260903020405 73 175 0.0 0.0 0.00 0.00 0.00 38 1006.3
20260903015905 74 175 0.0 0.0 0.00 0.00 0.00 37 1006.2
20260903014405 76 175 0.0 0.0 0.00 0.00 0.00 33 1006.2
20260903013404 77 175 0.0 1.0 0.00 0.00 0.00 31 1006.2
20260903011404 79 192 1.0 6.0 0.00 0.00 0.00 27 1006.2
20260903010405 80 199 3.0 9.0 0.00 0.00 0.00 27 1006.1
20260903005904 80 214 3.0 9.0 0.00 0.00 0.00 27 1006.1